This is the latest recevied weather packets stored in our database for station/object K7KAR-2. If no packets are shown the sender has not sent any weather packets the latest 10 day(s).
| Time | Temp. | Humidity | Pressure | Rain* | Wind** | Luminosity | Snow |
|---|---|---|---|---|---|---|---|
| 1777650446 | 13.89° C | 19% | 1019.1 hPa | 0 mm | - | 827 W/m² | - |
| 1777650143 | 13.89° C | 21% | 1019 hPa | 0 mm | - | 812 W/m² | - |
| 1777649841 | 12.78° C | 22% | 1019.2 hPa | 0 mm | - | 807 W/m² | - |
| 1777649538 | 12.78° C | 23% | 1019.2 hPa | 0 mm | - | 798 W/m² | - |
| 1777649234 | 12.22° C | 25% | 1019.1 hPa | 0 mm | - | 789 W/m² | - |
| 1777648931 | 12.22° C | 26% | 1018.9 hPa | 0 mm | - | 752 W/m² | - |
| 1777648628 | 11.67° C | 27% | 1019 hPa | 0 mm | - | 736 W/m² | - |
| 1777648324 | 11.11° C | 28% | 1019.2 hPa | 0 mm | - | 716 W/m² | - |
| 1777648021 | 10.56° C | 30% | 1019.1 hPa | 0 mm | - | 676 W/m² | - |
| 1777647717 | 10.56° C | 31% | 1019.2 hPa | 0 mm | - | 665 W/m² | - |
| 1777647413 | 10° C | 31% | 1019.1 hPa | 0 mm | - | 644 W/m² | - |
| 1777647111 | 9.44° C | 32% | 1019.1 hPa | 0 mm | - | 603 W/m² | - |
| 1777646808 | 9.44° C | 33% | 1018.9 hPa | 0 mm | - | 565 W/m² | - |
| 1777646502 | 8.89° C | 34% | 1018.9 hPa | 0 mm | - | 519 W/m² | - |
| 1777646199 | 8.89° C | 33% | 1018.9 hPa | 0 mm | - | 482 W/m² | - |
| 1777645897 | 8.33° C | 34% | 1019 hPa | 0 mm | - | 429 W/m² | - |
| 1777645593 | 8.33° C | 34% | 1019.1 hPa | 0 mm | - | 411 W/m² | - |
| 1777645290 | 7.78° C | 35% | 1019.1 hPa | 0 mm | - | 393 W/m² | - |
| 1777644985 | 6.67° C | 38% | 1019.1 hPa | 0 mm | - | 371 W/m² | - |
| 1777644684 | 6.67° C | 38% | 1019.4 hPa | 0 mm | - | 338 W/m² | - |
| 1777644379 | 6.11° C | 38% | 1019.2 hPa | 0 mm | - | 346 W/m² | - |
| 1777644075 | 6.11° C | 39% | 1019 hPa | 0 mm | - | 324 W/m² | - |
| 1777643767 | 6.11° C | 40% | 1019.2 hPa | 0 mm | - | 306 W/m² | - |
| 1777643464 | 5.56° C | 44% | 1019.2 hPa | 0 mm | - | 270 W/m² | - |
| 1777643160 | 5° C | 45% | 1019.1 hPa | 0 mm | - | 253 W/m² | - |
* Rain latest hour (hover to see other rain measurements)
** Current wind speed in m/s (hover to see current wind gust speed)